[[{"header":{"parameterUnit":"m.s-1","parameterCategory":1,"la1":30.2991,"la2":30.254,"lo1":-89.0895,"lo2":-89.0444,"dy":0.0017,"dx":0.0017,"nx":28,"ny":28,"refTime":"2024-05-07T21:00:00:Z","depth":0,"parameterNumber":2,"parameterNumberName":"U-component_of_WINDS"},"data":[0,0,0,0,0,0,0,0,0,0,0,0,0,0,0,0,0,0,0,0,0,0,0,0,0,0,0,0,0,0,0,0,0,0,0,0,0,0,0,0,0,0,0,0,0,0,0,0,0,0,0,0,0,0,0,0,0,0,1.197,1.1971,0,1.2041,1.2042,1.2043,1.201,1.2008,1.2006,1.2005,1.208,1.2083,1.2087,0,0,0,0,0,0,0,0,0,0,0,0,0,1.1807,1.181,1.197,1.1971,1.1972,1.2041,1.2042,1.2043,1.201,1.2008,1.2006,1.2004,1.2078,1.2083,1.2087,0,0,0,0,0,0,0,0,0,0,0,0,0,1.1878,1.1811,1.197,1.1964,1.1964,1.2041,1.2042,1.2043,1.2011,1.2008,1.2005,1.2003,1.2077,1.2082,1.2088,1.2175,0,0,1.2104,1.2107,0,0,0,0,0,0,0,0,1.1874,1.1884,1.1964,1.1964,1.1965,1.2014,1.2012,1.2088,1.2011,1.1993,1.2005,1.2001,1.206,1.2067,1.2086,1.2179,1.2182,1.2105,1.2108,1.2111,1.2112,0,0,0,0,0,0,0,1.1869,1.1881,1.1998,1.1965,1.1966,1.1958,1.1965,1.2026,1.2041,1.1994,1.1992,1.2001,1.206,1.2081,1.2088,1.2183,1.2105,1.211,1.2113,1.2115,1.235,1.2353,0,0,0,0,0,0,1.1864,1.1877,1.1996,1.2,1.1912,1.1963,1.1971,1.2001,1.204,1.2043,1.2003,1.1999,1.2073,1.2081,1.209,1.2194,1.2111,1.2116,1.2119,1.2347,1.2351,1.2354,0,0,0,0,0,0,1.1861,1.1875,1.1993,1.1938,1.1953,1.1969,1.2003,1.2004,1.2025,1.2047,1.2049,1.2022,1.2071,1.2082,1.2154,1.2197,1.2118,1.2123,1.2344,1.2348,1.2353,1.2404,0,0,0,0,0,0,1.1856,1.1874,1.1908,1.1939,1.1956,1.2056,1.2005,1.2007,1.2034,1.2029,1.2065,1.2068,1.207,1.2146,1.2159,1.2203,1.2127,1.234,1.2346,1.2351,1.2399,1.241,1.242,0,0,0,0,0,1.1851,1.192,1.1909,1.1924,1.1998,1.2058,1.2068,1.2067,1.2038,1.2071,1.2085,1.2067,1.219,1.2154,1.2168,1.2214,1.2337,1.2344,1.2351,1.2394,1.2408,1.2419,0,0,0,0,0,0,1.1894,1.1924,1.1913,1.1994,1.2024,1.2053,1.2095,1.2082,1.2121,1.2115,1.2114,1.2122,1.2196,1.2212,1.2172,1.23,1.2259,1.2269,1.2287,1.23,1.231,1.2305,1.2132,0,0,0,0,0,1.1913,1.1959,1.1983,1.2053,1.2068,1.2079,1.2106,1.2103,1.2134,1.2146,1.2165,1.2197,1.2242,1.2272,1.2315,1.2401,1.2408,1.244,1.245,1.2458,1.2467,1.2513,1.2527,1.2376,1.2376,1.2376,0,0,1.1953,1.1975,1.2005,1.2062,1.2085,1.2133,1.209,1.2143,1.2179,1.2155,1.2223,1.2238,1.2273,1.2352,1.2387,1.2367,1.251,1.2467,1.2473,1.2477,1.2521,1.2535,1.2548,1.238,1.238,1.2379,0,0,1.205,1.2072,1.2131,1.2155,1.2189,1.2195,1.221,1.224,1.2249,1.2318,1.23,1.2343,1.2421,1.2446,1.2469,1.2575,1.2559,1.2589,1.2643,1.2687,1.2699,1.271,1.2746,1.276,1.2597,1.2597,1.2597,0,1.2095,1.2167,1.2164,1.2218,1.2244,1.2223,1.2283,1.2306,1.2353,1.2372,1.2348,1.2445,1.2467,1.2551,1.2577,1.2596,1.2613,1.2585,1.2697,1.2708,1.2718,1.2753,1.2767,1.2601,1.26,1.26,1.26,0,1.222,1.227,1.2314,1.2359,1.239,1.2447,1.2453,1.2484,1.2479,1.2488,1.2557,1.2583,1.263,1.265,1.2645,1.2733,1.2719,1.2697,1.2655,1.2735,1.2768,1.2782,1.2605,1.2604,1.2603,1.2602,0,0,1.2347,1.2389,1.2405,1.2425,1.246,1.2499,1.2555,1.26,1.2627,1.266,1.2707,1.2773,1.2752,1.2778,1.2776,1.2815,1.2896,1.2788,1.2789,1.2807,1.2994,1.301,1.3026,1.2886,1.2889,1.2891,1.299,0,1.2446,1.2543,1.2542,1.2632,1.2678,1.2658,1.2707,1.2734,1.2744,1.2785,1.2796,1.2842,1.2811,1.2827,1.2865,1.2878,1.2934,1.2871,1.293,1.2932,1.2921,1.3043,1.3061,1.3153,1.3003,1.3006,1.3007,0,1.2575,1.2611,1.2705,1.2733,1.2752,1.2796,1.2837,1.2876,1.2906,1.2911,1.2939,1.2931,1.2988,1.2944,1.3022,1.298,1.3004,1.3014,1.3018,1.3023,1.2974,1.3051,1.3183,1.3197,1.3028,1.3026,1.3024,0,1.2657,1.2729,1.2794,1.2812,1.2847,1.2878,1.2894,1.2921,1.2948,1.2984,1.3002,1.3044,1.3068,1.3101,1.3104,1.3072,1.3183,1.314,1.3188,1.3188,1.3212,1.321,1.3349,1.3228,1.3228,1.3227,1.3227,0,1.2767,1.2825,1.2831,1.2872,1.2937,1.2935,1.2999,1.3012,1.3037,1.3079,1.3066,1.3106,1.3108,1.3149,1.3152,1.3216,1.3227,1.3232,1.3232,1.3233,1.3232,1.3248,1.3242,1.3231,1.323,1.323,1.3229,0,1.2869,1.2876,1.2946,1.2973,1.2981,1.3027,1.305,1.3089,1.3097,1.3151,1.3163,1.3176,1.3224,1.3231,1.3287,1.3289,1.3365,1.3359,1.3355,1.3354,1.3401,1.3396,1.3555,1.3575,1.3441,1.3443,1.3444,0,1.2939,1.2983,1.3015,1.3042,1.3059,1.3103,1.313,1.313,1.3159,1.3196,1.323,1.3276,1.3313,1.3391,1.3406,1.3448,1.3442,1.3495,1.3449,1.3448,1.3443,1.344,1.3444,1.3504,1.3506,1.3507,1.3508,0,1.3062,1.3063,1.3102,1.3142,1.3175,1.3207,1.3237,1.326,1.3264,1.3297,1.3345,1.3374,1.3431,1.3477,1.3519,1.3535,1.3522,1.3522,1.3535,1.3537,1.3532,1.3534,1.3379,1.3518,1.3517,1.3517,1.3516,1.3516,1.315,1.3188,1.3215,1.3259,1.3282,1.331,1.3347,1.3359,1.3399,1.3445,1.3442,1.3496,1.3524,1.3579,1.3599,1.364,1.3623,1.3642,1.3647,1.3652,1.3656,1.3526,1.3648,1.3648,1.3648,1.3647,1.3647,0,1.3271,1.3287,1.3328,1.337,1.3405,1.3388,1.3421,1.3451,1.3497,1.3525,1.3561,1.3616,1.3661,1.3678,1.3722,1.3752,1.3747,1.3763,1.3761,1.3765,1.367,1.3653,1.3766,1.3766,1.3766,1.3766,1.3766,1.3766,1.3338,1.3401,1.3405,1.3479,1.3495,1.3546,1.3566,1.3592,1.3614,1.3676,1.3712,1.3723,1.3747,1.3792,1.3832,1.3836,1.3852,1.3871,1.3872,1.3783,1.3771,1.376,1.3745,1.3875,1.3875,1.3964,1.3965,1.3965]},{"header":{"parameterUnit":"m.s-1","parameterCategory":1,"la1":30.2991,"la2":30.254,"lo1":-89.0895,"lo2":-89.0444,"dy":0.0017,"dx":0.0017,"nx":28,"ny":28,"refTime":"2024-05-07T21:00:00:Z","depth":0,"parameterNumber":3,"parameterNumberName":"V-component_of_WINDS"},"data":[0,0,0,0,0,0,0,0,0,0,0,0,0,0,0,0,0,0,0,0,0,0,0,0,0,0,0,0,0,0,0,0,0,0,0,0,0,0,0,0,0,0,0,0,0,0,0,0,0,0,0,0,0,0,0,0,0,0,4.5026,4.5028,0,4.5235,4.5237,4.5239,4.5244,4.5242,4.5239,4.5237,4.5451,4.5459,4.5467,0,0,0,0,0,0,0,0,0,0,0,0,0,4.463,4.4637,4.5025,4.5028,4.5031,4.5234,4.5237,4.524,4.5245,4.5242,4.5239,4.5236,4.5449,4.5458,4.5468,0,0,0,0,0,0,0,0,0,0,0,0,0,4.4817,4.4639,4.5025,4.5057,4.5062,4.5234,4.5237,4.5241,4.5245,4.5242,4.5238,4.5234,4.5445,4.5457,4.5469,4.5622,0,0,4.5507,4.5512,0,0,0,0,0,0,0,0,4.4806,4.4831,4.505,4.5056,4.5061,4.5209,4.5176,4.5369,4.5246,4.5176,4.5237,4.5232,4.5374,4.5392,4.544,4.5632,4.5641,4.5508,4.5515,4.552,4.5524,0,0,0,0,0,0,0,4.4793,4.4822,4.5108,4.5053,4.506,4.5062,4.5084,4.5213,4.5294,4.5182,4.5183,4.5207,4.5376,4.5428,4.5445,4.5645,4.5507,4.5518,4.5526,4.553,4.5974,4.5978,0,0,0,0,0,0,4.4774,4.4811,4.5101,4.5114,4.4922,4.5072,4.5097,4.5166,4.5293,4.5308,4.521,4.5207,4.5409,4.543,4.5452,4.5641,4.552,4.5532,4.5539,4.597,4.5975,4.598,0,0,0,0,0,0,4.4765,4.4799,4.5093,4.4963,4.5001,4.5083,4.516,4.5172,4.5224,4.5315,4.5329,4.5248,4.5407,4.5435,4.558,4.5648,4.5537,4.5548,4.5964,4.5971,4.5978,4.6018,0,0,0,0,0,0,4.4754,4.4796,4.4855,4.4965,4.5008,4.5218,4.5165,4.5179,4.5245,4.5242,4.5354,4.5369,4.5406,4.5562,4.5592,4.5663,4.5558,4.5959,4.5968,4.5975,4.6011,4.6025,4.6037,0,0,0,0,0,4.474,4.4858,4.4858,4.4893,4.5083,4.5221,4.5246,4.5287,4.525,4.531,4.5368,4.5365,4.5635,4.5577,4.5611,4.5686,4.5955,4.5965,4.5975,4.6005,4.6022,4.6037,0,0,0,0,0,0,4.4755,4.4873,4.4874,4.5032,4.5117,4.5222,4.5299,4.5303,4.54,4.5394,4.544,4.5465,4.561,4.5662,4.5595,4.5841,4.5791,4.5808,4.5802,4.5819,4.5832,4.5817,4.5568,0,0,0,0,0,4.4776,4.4879,4.4976,4.5106,4.5148,4.5216,4.5278,4.5302,4.5391,4.5427,4.5496,4.5584,4.5688,4.5756,4.5858,4.6018,4.6043,4.6086,4.6099,4.611,4.6125,4.6214,4.6235,4.6013,4.6013,4.6013,0,0,4.4822,4.4899,4.4961,4.5111,4.5179,4.5285,4.5246,4.5359,4.5438,4.5445,4.5586,4.564,4.574,4.5893,4.5964,4.5942,4.6191,4.6123,4.613,4.614,4.6227,4.6248,4.6266,4.602,4.6019,4.6018,0,0,4.4959,4.5028,4.5144,4.5213,4.5317,4.5362,4.5389,4.5494,4.553,4.5673,4.568,4.5774,4.5953,4.6025,4.6085,4.6249,4.625,4.6281,4.635,4.6437,4.6455,4.647,4.653,4.6551,4.6295,4.6295,4.6295,0,4.5003,4.5162,4.5202,4.5316,4.5382,4.5392,4.551,4.5575,4.5707,4.5753,4.5725,4.5951,4.6019,4.619,4.623,4.6278,4.6311,4.6269,4.6449,4.6465,4.648,4.6538,4.656,4.6298,4.6298,4.6298,4.6297,0,4.5211,4.5321,4.5402,4.553,4.5605,4.5719,4.5777,4.5848,4.5865,4.5913,4.6058,4.614,4.6259,4.6301,4.6319,4.6475,4.6458,4.6439,4.6389,4.6504,4.6559,4.6581,4.6303,4.6302,4.6301,4.63,0,0,4.5365,4.5513,4.5542,4.56,4.5716,4.5802,4.5917,4.6033,4.6093,4.6184,4.6282,4.6434,4.6417,4.6485,4.6511,4.6587,4.6713,4.6559,4.6563,4.6586,4.6892,4.6906,4.693,4.6714,4.6718,4.6722,4.6883,0,4.5515,4.5721,4.5761,4.594,4.6042,4.6054,4.6155,4.6236,4.6284,4.6378,4.643,4.6537,4.6507,4.6548,4.6623,4.6682,4.6776,4.6671,4.6807,4.6811,4.6783,4.6959,4.6974,4.7123,4.6905,4.6909,4.6911,0,4.5719,4.5815,4.6004,4.6106,4.6151,4.6241,4.6351,4.644,4.6533,4.6562,4.6638,4.6656,4.6777,4.672,4.6888,4.6816,4.6874,4.6911,4.6918,4.6933,4.6869,4.698,4.7171,4.7194,4.6945,4.6943,4.694,0,4.5813,4.5989,4.6126,4.6175,4.6297,4.636,4.6414,4.6504,4.6571,4.6667,4.6711,4.682,4.6879,4.6963,4.701,4.6964,4.7174,4.7122,4.7202,4.7201,4.7247,4.7244,4.7451,4.7282,4.7282,4.7282,4.7281,0,4.5978,4.6094,4.617,4.6254,4.6383,4.6428,4.6555,4.6608,4.6688,4.6783,4.6799,4.6887,4.6943,4.7039,4.7076,4.721,4.7237,4.7264,4.7273,4.7264,4.726,4.7303,4.7294,4.7288,4.7286,4.7285,4.7284,0,4.6106,4.6161,4.6311,4.6414,4.6443,4.6534,4.6623,4.6706,4.6752,4.6872,4.6903,4.6977,4.7092,4.7146,4.7288,4.7313,4.7465,4.7466,4.7434,4.7437,4.7516,4.7508,4.7759,4.7794,4.7601,4.7602,4.7604,0,4.6208,4.6297,4.641,4.6475,4.6531,4.6634,4.6703,4.675,4.6821,4.6934,4.7003,4.7118,4.7213,4.7396,4.7463,4.7571,4.7576,4.7657,4.7593,4.7581,4.7579,4.7574,4.7583,4.7668,4.767,4.7672,4.7673,0,4.6383,4.6406,4.6505,4.6614,4.6695,4.6783,4.6869,4.6921,4.6982,4.7061,4.7179,4.7252,4.7397,4.7512,4.7625,4.7681,4.7688,4.7692,4.7717,4.7709,4.7687,4.7701,4.7467,4.7687,4.7685,4.7684,4.7684,4.7683,4.6503,4.6583,4.6675,4.6785,4.6854,4.6935,4.7017,4.7075,4.7173,4.7295,4.7317,4.7442,4.7533,4.7686,4.7746,4.7845,4.7827,4.7862,4.7871,4.788,4.7885,4.767,4.7866,4.7865,4.7865,4.7865,4.7865,0,4.668,4.674,4.684,4.696,4.7047,4.7045,4.714,4.7213,4.7323,4.7407,4.75,4.7635,4.7747,4.7822,4.7935,4.8,4.8006,4.8028,4.8024,4.8038,4.7894,4.7862,4.8021,4.8021,4.8021,4.8021,4.8021,4.8021,4.6783,4.6918,4.6952,4.7123,4.7183,4.7305,4.736,4.7434,4.7502,4.7653,4.7745,4.7793,4.7875,4.7994,4.8096,4.8116,4.8157,4.818,4.8199,4.8064,4.8047,4.8032,4.8002,4.8188,4.8189,4.8335,4.8336,4.8337]}]]